"Sample Date","Sample Time","Sample Value","Units","Flow Rate","Sample Interval","Number Channels","Micron Size 0","Counts/Channel 0","Micron Size 1","Counts/Channel 1","Micron Size 2","Counts/Channel 2","Micron Size 3","Counts/Channel 3","Micron Size 4","Counts/Channel 4","Micron Size 5","Counts/Channel 5","Micron Size 6","Counts/Channel 6","Micron Size 7","Counts/Channel 7","Micron Size 8","Counts/Channel 8","Micron Size 9","Counts/Channel 9","Micron Size 10","Counts/Channel 10","Micron Size 11","Counts/Channel 11","Micron Size 12","Counts/Channel 12","Micron Size 13","Counts/Channel 13","Micron Size 14","Counts/Channel 14","Micron Size 15","Counts/Channel 15","Micron Size 16","Counts/Channel 16","Micron Size 17","Counts/Channel 17","Micron Size 18","Counts/Channel 18","Micron Size 19","Counts/Channel 19","Micron Size 20","Counts/Channel 20","Micron Size 21","Counts/Channel 21","Micron Size 22","Counts/Channel 22","Micron Size 23","Counts/Channel 23","Micron Size 24","Counts/Channel 24","Micron Size 25","Counts/Channel 25","Micron Size 26","Counts/Channel 26","Micron Size 27","Counts/Channel 27","Micron Size 28","Counts/Channel 28","Micron Size 29","Counts/Channel 29","Micron Size 30","Counts/Channel 30","Micron Size 31","Counts/Channel 31"
"04/03/08","01:00:03",26303.000,"cc",28260.973,6.00,6,0.100,23551.000,0.200,1251.000,0.300,630.000,0.500,663.000,1.000,208.000,5.000,0
"04/03/08","01:00:09",26352.000,"cc",28319.586,6.00,6,0.100,23577.000,0.200,1257.000,0.300,626.000,0.500,675.000,1.000,217.000,5.000,0
"04/03/08","01:00:15",25999.000,"cc",28319.049,6.00,6,0.100,23359.000,0.200,1249.000,0.300,565.000,0.500,636.000,1.000,190.000,5.000,0
"04/03/08","01:00:21",26300.000,"cc",28325.859,6.00,6,0.100,23685.000,0.200,1221.000,0.300,583.000,0.500,611.000,1.000,200.000,5.000,0
"04/03/08","01:00:27",25764.000,"cc",28277.293,6.00,6,0.100,23178.000,0.200,1189.000,0.300,552.000,0.500,632.000,1.000,213.000,5.000,0
"04/03/08","01:00:33",26311.000,"cc",28334.061,6.00,6,0.100,23609.000,0.200,1298.000,0.300,541.000,0.500,658.000,1.000,205.000,5.000,0
"04/03/08","01:00:39",26388.000,"cc",28354.711,6.00,6,0.100,23672.000,0.200,1251.000,0.300,581.000,0.500,630.000,1.000,254.000,5.000,0
"04/03/08","01:00:45",25971.000,"cc",28303.311,6.00,6,0.100,23240.000,0.200,1275.000,0.300,575.000,0.500,651.000,1.000,230.000,5.000,0
"04/03/08","01:00:51",26162.000,"cc",28316.951,6.00,6,0.100,23476.000,0.200,1201.000,0.300,578.000,0.500,680.000,1.000,227.000,5.000,0
"04/03/08","01:00:57",26178.000,"cc",28270.186,6.00,6,0.100,23495.000,0.200,1264.000,0.300,559.000,0.500,647.000,1.000,213.000,5.000,0
"04/03/08","01:01:03",26451.000,"cc",28304.467,6.00,6,0.100,23607.000,0.200,1249.000,0.300,621.000,0.500,732.000,1.000,242.000,5.000,0
"04/03/08","01:01:09",26982.000,"cc",28307.594,6.00,6,0.100,24126.000,0.200,1287.000,0.300,636.000,0.500,689.000,1.000,244.000,5.000,0
"04/03/08","01:01:15",26886.000,"cc",28315.029,6.00,6,0.100,23922.000,0.200,1292.000,0.300,676.000,0.500,740.000,1.000,256.000,5.000,0
"04/03/08","01:01:21",26696.000,"cc",28413.760,6.00,6,0.100,23822.000,0.200,1316.000,0.300,615.000,0.500,711.000,1.000,232.000,5.000,0
"04/03/08","01:01:27",26602.000,"cc",28325.293,6.00,6,0.100,23838.000,0.200,1239.000,0.300,604.000,0.500,700.000,1.000,221.000,5.000,0
"04/03/08","01:01:33",26989.000,"cc",28286.049,6.00,6,0.100,24006.000,0.200,1351.000,0.300,636.000,0.500,761.000,1.000,235.000,5.000,0
"04/03/08","01:01:39",26789.000,"cc",28300.068,6.00,6,0.100,23914.000,0.200,1297.000,0.300,650.000,0.500,689.000,1.000,239.000,5.000,0
"04/03/08","01:01:45",27052.000,"cc",28314.268,6.00,6,0.100,24201.000,0.200,1266.000,0.300,609.000,0.500,726.000,1.000,250.000,5.000,0
"04/03/08","01:01:51",26626.000,"cc",28360.473,6.00,6,0.100,23765.000,0.200,1297.000,0.300,640.000,0.500,687.000,1.000,237.000,5.000,0
"04/03/08","01:01:57",26888.000,"cc",28259.106,6.00,6,0.100,24094.000,0.200,1255.000,0.300,625.000,0.500,680.000,1.000,234.000,5.000,0
"04/03/08","01:02:03",26790.000,"cc",28330.639,6.00,6,0.100,24121.000,0.200,1241.000,0.300,568.000,0.500,635.000,1.000,225.000,5.000,0
"04/03/08","01:02:09",27016.000,"cc",28320.381,6.00,6,0.100,24199.000,0.200,1333.000,0.300,604.000,0.500,682.000,1.000,198.000,5.000,0
"04/03/08","01:02:15",27178.000,"cc",28329.350,6.00,6,0.100,24405.000,0.200,1301.000,0.300,572.000,0.500,672.000,1.000,228.000,5.000,0
"04/03/08","01:02:21",27016.000,"cc",28300.906,6.00,6,0.100,24165.000,0.200,1296.000,0.300,603.000,0.500,728.000,1.000,224.000,5.000,0
"04/03/08","01:02:27",27200.000,"cc",28337.059,6.00,6,0.100,24350.000,0.200,1299.000,0.300,607.000,0.500,712.000,1.000,232.000,5.000,0
"04/03/08","01:02:33",27429.000,"cc",28248.721,6.00,6,0.100,24585.000,0.200,1301.000,0.300,631.000,0.500,675.000,1.000,237.000,5.000,0
"04/03/08","01:02:39",27146.000,"cc",28320.123,6.00,6,0.100,24295.000,0.200,1365.000,0.300,594.000,0.500,643.000,1.000,249.000,5.000,0
"04/03/08","01:02:45",27132.000,"cc",28337.285,6.00,6,0.100,24383.000,0.200,1272.000,0.300,563.000,0.500,677.000,1.000,237.000,5.000,0
"04/03/08","01:02:51",27094.000,"cc",28366.953,6.00,6,0.100,24295.000,0.200,1243.000,0.300,618.000,0.500,715.000,1.000,223.000,5.000,0
"04/03/08","01:02:57",27737.000,"cc",28283.383,6.00,6,0.100,24742.000,0.200,1374.000,0.300,645.000,0.500,716.000,1.000,260.000,5.000,0
"04/03/08","01:03:03",27598.000,"cc",28344.164,6.00,6,0.100,24732.000,0.200,1305.000,0.300,609.000,0.500,717.000,1.000,235.000,5.000,0
"04/03/08","01:03:09",28027.000,"cc",28206.690,6.00,6,0.100,25083.000,0.200,1341.000,0.300,627.000,0.500,732.000,1.000,244.000,5.000,0
"04/03/08","01:03:15",28004.000,"cc",28391.197,6.00,6,0.100,25110.000,0.200,1344.000,0.300,634.000,0.500,669.000,1.000,247.000,5.000,0
"04/03/08","01:03:21",28018.000,"cc",28346.793,6.00,6,0.100,25189.000,0.200,1310.000,0.300,606.000,0.500,687.000,1.000,226.000,5.000,0
"04/03/08","01:03:27",28203.000,"cc",28305.004,6.00,6,0.100,25241.000,0.200,1360.000,0.300,621.000,0.500,725.000,1.000,256.000,5.000,0
"04/03/08","01:03:33",28326.000,"cc",28300.551,6.00,6,0.100,25339.000,0.200,1365.000,0.300,646.000,0.500,726.000,1.000,250.000,5.000,0
"04/03/08","01:03:39",28566.000,"cc",28307.809,6.00,6,0.100,25530.000,0.200,1340.000,0.300,654.000,0.500,773.000,1.000,269.000,5.000,0
"04/03/08","01:03:45",28412.000,"cc",28326.100,6.00,6,0.100,25296.000,0.200,1419.000,0.300,689.000,0.500,746.000,1.000,262.000,5.000,0
"04/03/08","01:03:51",28210.000,"cc",28323.232,6.00,6,0.100,25299.000,0.200,1358.000,0.300,608.000,0.500,687.000,1.000,258.000,5.000,0
"04/03/08","01:03:57",28521.000,"cc",28262.705,6.00,6,0.100,25635.000,0.200,1353.000,0.300,631.000,0.500,683.000,1.000,219.000,5.000,0
"04/03/08","01:04:03",28448.000,"cc",28335.160,6.00,6,0.100,25525.000,0.200,1314.000,0.300,642.000,0.500,714.000,1.000,253.000,5.000,0
"04/03/08","01:04:09",28707.000,"cc",28326.356,6.00,6,0.100,25527.000,0.200,1456.000,0.300,703.000,0.500,755.000,1.000,266.000,5.000,0
"04/03/08","01:04:15",28518.000,"cc",28363.717,6.00,6,0.100,25331.000,0.200,1415.000,0.300,688.000,0.500,809.000,1.000,275.000,5.000,0
"04/03/08","01:04:21",28703.000,"cc",28307.791,6.00,6,0.100,25726.000,0.200,1342.000,0.300,654.000,0.500,717.000,1.000,264.000,5.000,0
"04/03/08","01:04:27",28787.000,"cc",28348.816,6.00,6,0.100,25699.000,0.200,1412.000,0.300,623.000,0.500,782.000,1.000,271.000,5.000,0
"04/03/08","01:04:33",28865.000,"cc",28333.260,6.00,6,0.100,25869.000,0.200,1395.000,0.300,612.000,0.500,720.000,1.000,269.000,5.000,0
"04/03/08","01:04:39",28951.000,"cc",28328.209,6.00,6,0.100,25853.000,0.200,1373.000,0.300,694.000,0.500,746.000,1.000,285.000,5.000,0
"04/03/08","01:04:45",28915.000,"cc",28277.244,6.00,6,0.100,25729.000,0.200,1420.000,0.300,711.000,0.500,774.000,1.000,281.000,5.000,0
"04/03/08","01:04:51",28778.000,"cc",28334.236,6.00,6,0.100,25643.000,0.200,1442.000,0.300,668.000,0.500,749.000,1.000,276.000,5.000,0
"04/03/08","01:04:57",28351.000,"cc",28369.346,6.00,6,0.100,25425.000,0.200,1333.000,0.300,626.000,0.500,712.000,1.000,255.000,5.000,0
"04/03/08","01:05:03",28447.000,"cc",28301.307,6.00,6,0.100,25381.000,0.200,1380.000,0.300,651.000,0.500,742.000,1.000,293.000,5.000,0
"04/03/08","01:05:09",28801.000,"cc",28271.693,6.00,6,0.100,25762.000,0.200,1359.000,0.300,670.000,0.500,775.000,1.000,235.000,5.000,0
"04/03/08","01:05:15",28458.000,"cc",28301.424,6.00,6,0.100,25402.000,0.200,1352.000,0.300,702.000,0.500,735.000,1.000,267.000,5.000,0
"04/03/08","01:05:21",28601.000,"cc",28383.941,6.00,6,0.100,25481.000,0.200,1402.000,0.300,698.000,0.500,770.000,1.000,250.000,5.000,0
"04/03/08","01:05:27",28602.000,"cc",28320.934,6.00,6,0.100,25695.000,0.200,1330.000,0.300,588.000,0.500,726.000,1.000,263.000,5.000,0
"04/03/08","01:05:33",28565.000,"cc",28302.266,6.00,6,0.100,25430.000,0.200,1413.000,0.300,647.000,0.500,776.000,1.000,299.000,5.000,0
"04/03/08","01:05:39",28249.000,"cc",28284.783,6.00,6,0.100,25253.000,0.200,1369.000,0.300,693.000,0.500,703.000,1.000,231.000,5.000,0
"04/03/08","01:05:45",28624.000,"cc",28299.746,6.00,6,0.100,25648.000,0.200,1340.000,0.300,643.000,0.500,733.000,1.000,260.000,5.000,0
"04/03/08","01:05:51",28275.000,"cc",28291.783,6.00,6,0.100,25320.000,0.200,1315.000,0.300,647.000,0.500,739.000,1.000,254.000,5.000,0
"04/03/08","01:05:57",28642.000,"cc",28309.174,6.00,6,0.100,25701.000,0.200,1292.000,0.300,632.000,0.500,737.000,1.000,280.000,5.000,0
"04/03/08","01:06:03",28852.000,"cc",28264.850,6.00,6,0.100,25711.000,0.200,1436.000,0.300,656.000,0.500,760.000,1.000,289.000,5.000,0
"04/03/08","01:06:09",29030.000,"cc",28313.035,6.00,6,0.100,25881.000,0.200,1453.000,0.300,664.000,0.500,748.000,1.000,284.000,5.000,0
"04/03/08","01:06:15",29150.000,"cc",28345.873,6.00,6,0.100,26065.000,0.200,1362.000,0.300,669.000,0.500,763.000,1.000,291.000,5.000,0
"04/03/08","01:06:21",29057.000,"cc",28393.260,6.00,6,0.100,25920.000,0.200,1402.000,0.300,667.000,0.500,789.000,1.000,279.000,5.000,0
"04/03/08","01:06:27",28956.000,"cc",28324.199,6.00,6,0.100,25777.000,0.200,1385.000,0.300,746.000,0.500,782.000,1.000,266.000,5.000,0
"04/03/08","01:06:33",29455.000,"cc",28288.346,6.00,6,0.100,26100.000,0.200,1472.000,0.300,724.000,0.500,831.000,1.000,328.000,5.000,0
"04/03/08","01:06:39",29138.000,"cc",28325.469,6.00,6,0.100,25932.000,0.200,1389.000,0.300,705.000,0.500,830.000,1.000,282.000,5.000,0
"04/03/08","01:06:45",29333.000,"cc",28232.543,6.00,6,0.100,26045.000,0.200,1426.000,0.300,738.000,0.500,819.000,1.000,305.000,5.000,0
"04/03/08","01:06:51",29148.000,"cc",28270.904,6.00,6,0.100,26095.000,0.200,1379.000,0.300,624.000,0.500,794.000,1.000,256.000,5.000,0
"04/03/08","01:06:57",29059.000,"cc",28394.285,6.00,6,0.100,25945.000,0.200,1437.000,0.300,663.000,0.500,741.000,1.000,273.000,5.000,0
"04/03/08","01:07:03",28589.000,"cc",28382.611,6.00,6,0.100,25501.000,0.200,1431.000,0.300,634.000,0.500,734.000,1.000,289.000,5.000,0
"04/03/08","01:07:09",28452.000,"cc",28323.125,6.00,6,0.100,25404.000,0.200,1366.000,0.300,630.000,0.500,779.000,1.000,273.000,5.000,0
"04/03/08","01:07:15",28415.000,"cc",28237.461,6.00,6,0.100,25455.000,0.200,1355.000,0.300,625.000,0.500,731.000,1.000,249.000,5.000,0
"04/03/08","01:07:21",28580.000,"cc",28288.461,6.00,6,0.100,25541.000,0.200,1361.000,0.300,692.000,0.500,736.000,1.000,250.000,5.000,0
"04/03/08","01:07:27",28328.000,"cc",28297.742,6.00,6,0.100,25451.000,0.200,1365.000,0.300,631.000,0.500,655.000,1.000,226.000,5.000,0
"04/03/08","01:07:33",28761.000,"cc",28354.731,6.00,6,0.100,25685.000,0.200,1405.000,0.300,662.000,0.500,748.000,1.000,261.000,5.000,0
"04/03/08","01:07:39",28875.000,"cc",28340.760,6.00,6,0.100,25785.000,0.200,1357.000,0.300,661.000,0.500,755.000,1.000,317.000,5.000,0
"04/03/08","01:07:45",29003.000,"cc",28317.094,6.00,6,0.100,25780.000,0.200,1394.000,0.300,706.000,0.500,820.000,1.000,303.000,5.000,0
"04/03/08","01:07:51",28551.000,"cc",28378.959,6.00,6,0.100,25577.000,0.200,1346.000,0.300,622.000,0.500,739.000,1.000,267.000,5.000,0
"04/03/08","01:07:57",28973.000,"cc",28297.426,6.00,6,0.100,25870.000,0.200,1427.000,0.300,707.000,0.500,690.000,1.000,279.000,5.000,0
"04/03/08","01:08:03",27655.000,"cc",28241.182,6.00,6,0.100,24755.000,0.200,1306.000,0.300,626.000,0.500,718.000,1.000,250.000,5.000,0
"04/03/08","01:08:09",27947.000,"cc",28289.828,6.00,6,0.100,25063.000,0.200,1311.000,0.300,630.000,0.500,694.000,1.000,249.000,5.000,0
"04/03/08","01:08:15",28447.000,"cc",28340.664,6.00,6,0.100,25419.000,0.200,1407.000,0.300,637.000,0.500,729.000,1.000,255.000,5.000,0
"04/03/08","01:08:21",27954.000,"cc",28356.240,6.00,6,0.100,24809.000,0.200,1406.000,0.300,622.000,0.500,840.000,1.000,277.000,5.000,0
"04/03/08","01:08:27",27948.000,"cc",28296.895,6.00,6,0.100,24818.000,0.200,1416.000,0.300,690.000,0.500,748.000,1.000,276.000,5.000,0
"04/03/08","01:08:33",27403.000,"cc",28375.854,6.00,6,0.100,24488.000,0.200,1383.000,0.300,606.000,0.500,679.000,1.000,247.000,5.000,0
"04/03/08","01:08:39",26817.000,"cc",28315.193,6.00,6,0.100,24002.000,0.200,1283.000,0.300,630.000,0.500,657.000,1.000,245.000,5.000,0
"04/03/08","01:08:45",26728.000,"cc",28361.865,6.00,6,0.100,24010.000,0.200,1264.000,0.300,551.000,0.500,640.000,1.000,263.000,5.000,0
"04/03/08","01:08:51",26464.000,"cc",28231.764,6.00,6,0.100,23823.000,0.200,1277.000,0.300,550.000,0.500,601.000,1.000,213.000,5.000,0
"04/03/08","01:08:57",26999.000,"cc",28337.555,6.00,6,0.100,24270.000,0.200,1239.000,0.300,659.000,0.500,620.000,1.000,211.000,5.000,0
"04/03/08","01:09:03",26844.000,"cc",28317.039,6.00,6,0.100,24180.000,0.200,1252.000,0.300,575.000,0.500,633.000,1.000,204.000,5.000,0
"04/03/08","01:09:09",26671.000,"cc",28304.828,6.00,6,0.100,23900.000,0.200,1288.000,0.300,586.000,0.500,668.000,1.000,229.000,5.000,0
"04/03/08","01:09:15",26930.000,"cc",28245.742,6.00,6,0.100,24240.000,0.200,1209.000,0.300,583.000,0.500,656.000,1.000,242.000,5.000,0
"04/03/08","01:09:21",27483.000,"cc",28329.102,6.00,6,0.100,24555.000,0.200,1303.000,0.300,627.000,0.500,741.000,1.000,257.000,5.000,0
"04/03/08","01:09:27",27459.000,"cc",28302.986,6.00,6,0.100,24627.000,0.200,1286.000,0.300,653.000,0.500,675.000,1.000,218.000,5.000,0
"04/03/08","01:09:33",27189.000,"cc",28359.225,6.00,6,0.100,24241.000,0.200,1355.000,0.300,644.000,0.500,718.000,1.000,231.000,5.000,0
"04/03/08","01:09:39",27692.000,"cc",28340.643,6.00,6,0.100,24776.000,0.200,1306.000,0.300,621.000,0.500,718.000,1.000,271.000,5.000,0
"04/03/08","01:09:45",26984.000,"cc",28236.586,6.00,6,0.100,24195.000,0.200,1236.000,0.300,595.000,0.500,699.000,1.000,259.000,5.000,0
"04/03/08","01:09:51",27392.000,"cc",28316.766,6.00,6,0.100,24450.000,0.200,1327.000,0.300,675.000,0.500,688.000,1.000,252.000,5.000,0
"04/03/08","01:09:57",27332.000,"cc",28338.383,6.00,6,0.100,24516.000,0.200,1315.000,0.300,603.000,0.500,662.000,1.000,236.000,5.000,0
"04/03/08","01:10:03",27740.000,"cc",28300.115,6.00,6,0.100,24865.000,0.200,1312.000,0.300,621.000,0.500,697.000,1.000,245.000,5.000,0
"04/03/08","01:10:09",27290.000,"cc",28299.623,6.00,6,0.100,24465.000,0.200,1325.000,0.300,584.000,0.500,691.000,1.000,225.000,5.000,0
"04/03/08","01:10:15",27592.000,"cc",28324.684,6.00,6,0.100,24719.000,0.200,1305.000,0.300,644.000,0.500,693.000,1.000,231.000,5.000,0
"04/03/08","01:10:21",27892.000,"cc",28362.305,6.00,6,0.100,25024.000,0.200,1315.000,0.300,629.000,0.500,682.000,1.000,242.000,5.000,0
"04/03/08","01:10:27",27586.000,"cc",28361.803,6.00,6,0.100,24737.000,0.200,1312.000,0.300,605.000,0.500,695.000,1.000,237.000,5.000,0
"04/03/08","01:10:33",27854.000,"cc",28279.772,6.00,6,0.100,24822.000,0.200,1356.000,0.300,640.000,0.500,784.000,1.000,252.000,5.000,0
"04/03/08","01:10:39",28100.000,"cc",28273.041,6.00,6,0.100,25223.000,0.200,1358.000,0.300,574.000,0.500,700.000,1.000,245.000,5.000,0
"04/03/08","01:10:45",27998.000,"cc",28357.490,6.00,6,0.100,25020.000,0.200,1354.000,0.300,629.000,0.500,726.000,1.000,269.000,5.000,0
"04/03/08","01:10:51",28179.000,"cc",28332.940,6.00,6,0.100,25291.000,0.200,1366.000,0.300,605.000,0.500,687.000,1.000,230.000,5.000,0
"04/03/08","01:10:57",27983.000,"cc",28299.711,6.00,6,0.100,25072.000,0.200,1368.000,0.300,605.000,0.500,697.000,1.000,241.000,5.000,0
"04/03/08","01:11:03",28131.000,"cc",28404.381,6.00,6,0.100,25287.000,0.200,1311.000,0.300,619.000,0.500,685.000,1.000,229.000,5.000,0
"04/03/08","01:11:09",28250.000,"cc",28285.400,6.00,6,0.100,25381.000,0.200,1330.000,0.300,598.000,0.500,672.000,1.000,269.000,5.000,0
"04/03/08","01:11:15",28366.000,"cc",28288.857,6.00,6,0.100,25511.000,0.200,1315.000,0.300,608.000,0.500,654.000,1.000,278.000,5.000,0
"04/03/08","01:11:21",27781.000,"cc",28330.459,6.00,6,0.100,24940.000,0.200,1293.000,0.300,571.000,0.500,718.000,1.000,259.000,5.000,0
"04/03/08","01:11:27",27861.000,"cc",28350.272,6.00,6,0.100,24904.000,0.200,1354.000,0.300,608.000,0.500,755.000,1.000,240.000,5.000,0
"04/03/08","01:11:33",27516.000,"cc",28284.736,6.00,6,0.100,24753.000,0.200,1317.000,0.300,596.000,0.500,633.000,1.000,217.000,5.000,0
"04/03/08","01:11:39",28180.000,"cc",28351.186,6.00,6,0.100,25213.000,0.200,1307.000,0.300,674.000,0.500,745.000,1.000,241.000,5.000,0
"04/03/08","01:11:45",27836.000,"cc",28320.846,6.00,6,0.100,24895.000,0.200,1333.000,0.300,647.000,0.500,686.000,1.000,275.000,5.000,0
"04/03/08","01:11:51",28021.000,"cc",28331.072,6.00,6,0.100,25029.000,0.200,1384.000,0.300,636.000,0.500,737.000,1.000,235.000,5.000,0
"04/03/08","01:11:57",28046.000,"cc",28246.199,6.00,6,0.100,25035.000,0.200,1379.000,0.300,648.000,0.500,705.000,1.000,279.000,5.000,0
"04/03/08","01:12:03",28031.000,"cc",28296.129,6.00,6,0.100,25070.000,0.200,1396.000,0.300,646.000,0.500,678.000,1.000,241.000,5.000,0
"04/03/08","01:12:09",28411.000,"cc",28292.682,6.00,6,0.100,25268.000,0.200,1408.000,0.300,720.000,0.500,759.000,1.000,256.000,5.000,0
"04/03/08","01:12:15",28279.000,"cc",28309.828,6.00,6,0.100,25147.000,0.200,1373.000,0.300,690.000,0.500,779.000,1.000,290.000,5.000,0
"04/03/08","01:12:21",28693.000,"cc",28352.606,6.00,6,0.100,25474.000,0.200,1466.000,0.300,669.000,0.500,794.000,1.000,290.000,5.000,0
"04/03/08","01:12:27",29008.000,"cc",28293.748,6.00,6,0.100,25602.000,0.200,1475.000,0.300,761.000,0.500,840.000,1.000,330.000,5.000,0
"04/03/08","01:12:33",28787.000,"cc",28336.191,6.00,6,0.100,25500.000,0.200,1477.000,0.300,713.000,0.500,800.000,1.000,297.000,5.000,0
"04/03/08","01:12:39",28899.000,"cc",28392.107,6.00,6,0.100,25369.000,0.200,1538.000,0.300,773.000,0.500,943.000,1.000,276.000,5.000,0
"04/03/08","01:12:45",28907.000,"cc",28342.147,6.00,6,0.100,25422.000,0.200,1564.000,0.300,781.000,0.500,824.000,1.000,316.000,5.000,0
"04/03/08","01:12:51",28472.000,"cc",28238.115,6.00,6,0.100,25280.000,0.200,1408.000,0.300,691.000,0.500,815.000,1.000,278.000,5.000,0
"04/03/08","01:12:57",28483.000,"cc",28306.139,6.00,6,0.100,25467.000,0.200,1416.000,0.300,654.000,0.500,698.000,1.000,248.000,5.000,0
"04/03/08","01:13:03",28015.000,"cc",28308.707,6.00,6,0.100,25134.000,0.200,1299.000,0.300,627.000,0.500,697.000,1.000,258.000,5.000,0
"04/03/08","01:13:09",28338.000,"cc",28315.902,6.00,6,0.100,25381.000,0.200,1331.000,0.300,608.000,0.500,780.000,1.000,238.000,5.000,0
"04/03/08","01:13:15",28172.000,"cc",28317.529,6.00,6,0.100,25257.000,0.200,1323.000,0.300,646.000,0.500,725.000,1.000,221.000,5.000,0
"04/03/08","01:13:21",28040.000,"cc",28319.352,6.00,6,0.100,25146.000,0.200,1371.000,0.300,610.000,0.500,665.000,1.000,248.000,5.000,0
"04/03/08","01:13:27",28507.000,"cc",28271.707,6.00,6,0.100,25388.000,0.200,1428.000,0.300,656.000,0.500,783.000,1.000,252.000,5.000,0
"04/03/08","01:13:33",28447.000,"cc",28365.965,6.00,6,0.100,25293.000,0.200,1397.000,0.300,696.000,0.500,775.000,1.000,286.000,5.000,0
"04/03/08","01:13:39",28386.000,"cc",28283.854,6.00,6,0.100,25466.000,0.200,1323.000,0.300,595.000,0.500,725.000,1.000,277.000,5.000,0
"04/03/08","01:13:45",28236.000,"cc",28348.160,6.00,6,0.100,25336.000,0.200,1293.000,0.300,630.000,0.500,714.000,1.000,263.000,5.000,0
"04/03/08","01:13:51",28015.000,"cc",28312.779,6.00,6,0.100,25229.000,0.200,1271.000,0.300,612.000,0.500,668.000,1.000,235.000,5.000,0
"04/03/08","01:13:57",28155.000,"cc",28253.219,6.00,6,0.100,25327.000,0.200,1262.000,0.300,631.000,0.500,684.000,1.000,251.000,5.000,0
"04/03/08","01:14:03",28188.000,"cc",28287.104,6.00,6,0.100,25314.000,0.200,1338.000,0.300,607.000,0.500,699.000,1.000,230.000,5.000,0
"04/03/08","01:14:09",28104.000,"cc",28338.717,6.00,6,0.100,25233.000,0.200,1340.000,0.300,594.000,0.500,706.000,1.000,231.000,5.000,0
"04/03/08","01:14:15",28280.000,"cc",28303.541,6.00,6,0.100,25384.000,0.200,1335.000,0.300,618.000,0.500,706.000,1.000,237.000,5.000,0
"04/03/08","01:14:21",28829.000,"cc",28266.178,6.00,6,0.100,25732.000,0.200,1417.000,0.300,685.000,0.500,735.000,1.000,260.000,5.000,0
"04/03/08","01:14:27",28236.000,"cc",28376.981,6.00,6,0.100,25190.000,0.200,1394.000,0.300,675.000,0.500,701.000,1.000,276.000,5.000,0
"04/03/08","01:14:33",28528.000,"cc",28410.877,6.00,6,0.100,25354.000,0.200,1452.000,0.300,722.000,0.500,739.000,1.000,261.000,5.000,0
"04/03/08","01:14:39",28045.000,"cc",28328.250,6.00,6,0.100,24963.000,0.200,1396.000,0.300,663.000,0.500,774.000,1.000,249.000,5.000,0
"04/03/08","01:14:45",28497.000,"cc",28291.570,6.00,6,0.100,25282.000,0.200,1443.000,0.300,690.000,0.500,811.000,1.000,271.000,5.000,0
"04/03/08","01:14:51",28361.000,"cc",28289.432,6.00,6,0.100,25257.000,0.200,1412.000,0.300,695.000,0.500,740.000,1.000,257.000,5.000,0
"04/03/08","01:14:57",28449.000,"cc",28312.484,6.00,6,0.100,25340.000,0.200,1423.000,0.300,653.000,0.500,777.000,1.000,256.000,5.000,0
"04/03/08","01:15:03",28626.000,"cc",28335.711,6.00,6,0.100,25561.000,0.200,1402.000,0.300,683.000,0.500,734.000,1.000,246.000,5.000,0
"04/03/08","01:15:09",28440.000,"cc",28281.912,6.00,6,0.100,25324.000,0.200,1380.000,0.300,691.000,0.500,766.000,1.000,279.000,5.000,0
"04/03/08","01:15:15",28830.000,"cc",28302.344,6.00,6,0.100,25658.000,0.200,1405.000,0.300,671.000,0.500,831.000,1.000,265.000,5.000,0
"04/03/08","01:15:21",28566.000,"cc",28357.654,6.00,6,0.100,25357.000,0.200,1404.000,0.300,686.000,0.500,809.000,1.000,310.000,5.000,0
"04/03/08","01:15:27",28986.000,"cc",28245.600,6.00,6,0.100,25703.000,0.200,1422.000,0.300,755.000,0.500,825.000,1.000,281.000,5.000,0
"04/03/08","01:15:33",28992.000,"cc",28327.926,6.00,6,0.100,25924.000,0.200,1411.000,0.300,650.000,0.500,719.000,1.000,288.000,5.000,0
"04/03/08","01:15:39",28749.000,"cc",28306.102,6.00,6,0.100,25695.000,0.200,1340.000,0.300,637.000,0.500,806.000,1.000,271.000,5.000,0
"04/03/08","01:15:45",28505.000,"cc",28327.369,6.00,6,0.100,25559.000,0.200,1362.000,0.300,640.000,0.500,694.000,1.000,250.000,5.000,0
"04/03/08","01:15:51",28607.000,"cc",28345.506,6.00,6,0.100,25572.000,0.200,1442.000,0.300,667.000,0.500,673.000,1.000,253.000,5.000,0
"04/03/08","01:15:57",28551.000,"cc",28329.678,6.00,6,0.100,25495.000,0.200,1362.000,0.300,678.000,0.500,762.000,1.000,254.000,5.000,0
"04/03/08","01:16:03",29339.000,"cc",28264.588,6.00,6,0.100,25858.000,0.200,1567.000,0.300,787.000,0.500,863.000,1.000,264.000,5.000,0
"04/03/08","01:16:09",29479.000,"cc",28293.416,6.00,6,0.100,26033.000,0.200,1574.000,0.300,737.000,0.500,855.000,1.000,280.000,5.000,0
"04/03/08","01:16:15",29284.000,"cc",28324.727,6.00,6,0.100,25970.000,0.200,1491.000,0.300,701.000,0.500,852.000,1.000,270.000,5.000,0
"04/03/08","01:16:21",28890.000,"cc",28323.438,6.00,6,0.100,25835.000,0.200,1372.000,0.300,659.000,0.500,752.000,1.000,272.000,5.000,0
"04/03/08","01:16:27",28337.000,"cc",28317.537,6.00,6,0.100,25428.000,0.200,1380.000,0.300,637.000,0.500,678.000,1.000,214.000,5.000,0
"04/03/08","01:16:33",28605.000,"cc",28325.680,6.00,6,0.100,25645.000,0.200,1356.000,0.300,630.000,0.500,753.000,1.000,221.000,5.000,0
"04/03/08","01:16:39",28599.000,"cc",28343.150,6.00,6,0.100,25574.000,0.200,1347.000,0.300,683.000,0.500,750.000,1.000,245.000,5.000,0